Doha, Qatar

5:10 AM +03 on August 22, 2017 (GMT +0300)
Doha International

Weather History for OTBD - November, 2011

Change the Weather History Date:

Sunday, November 6, 2011

  Actual Average Record
Temperature  
Mean Temperature 83 °F -  
Max Temperature 91 °F 83 °F 98 °F (2006)
Min Temperature 75 °F 65 °F 35 °F (1998)
Cooling Degree Days 18    
Growing Degree Days 33 (Base 50)    
Moisture  
Dew Point 69 °F    
Average Humidity 65    
Maximum Humidity 94    
Minimum Humidity 29    
Precipitation  
Precipitation 0.00 in 0.01 in - ()
Sea Level Pressure  
Sea Level Pressure 29.89 in    
Wind  
Wind Speed 4 mph ()    
Max Wind Speed 12 mph    
Max Gust Speed -    
Visibility 5.9 miles    
Events      
Averages and records for this station are not official NWS values.
T = Trace of Precipitation, MM = Missing Value Source: Averaged Metar Reports

Daily Weather History Graph

Daily Weather History Graph

Search for Another Location

Airport or City:

Trip Planner

Search our weather history database for the weather conditions in past years. The results will help you decide how hot, cold, wet, or windy it might be!

Date:

Astronomy

Nov. 06, 2011 Rise Set
Actual Time 5:44 AM +03 4:50 PM +03
Civil Twilight 5:20 AM +03 5:13 PM +03
Nautical Twilight 4:53 AM +03 5:41 PM +03
Astronomical Twilight 4:26 AM +03 6:08 PM +03
Moon 2:04 PM +03 (11/6) 1:51 AM +03 (11/6)
Length of Visible Light 11h 53m
Length of Day
11h 05m
Waxing Gibbous, 83% of the Moon is Illuminated
Nov 6
Waxing Gibbous
Nov 10
Full
Nov 18
Last Quarter
Nov 25
New
Dec 2
First Quarter

Hourly Weather History & Observations

Time (+03) Temp. Heat Index Dew Point Humidity Pressure Visibility Wind Dir Wind Speed Gust Speed Precip Events Conditions
12:00 AM 78.8 °F - 71.6 °F 78% 29.95 in - Variable 2.3 mph - N/A   Clear
12:30 AM 78.8 °F - 71.6 °F 78% 29.95 in - Variable 1.2 mph - N/A   Clear
1:00 AM 78.8 °F - 71.6 °F 78% 29.92 in - Variable 2.3 mph - N/A   Clear
1:30 AM 77.0 °F - 71.6 °F 83% 29.92 in - Variable 2.3 mph - N/A   Clear
2:00 AM 78.8 °F - 71.6 °F 78% 29.92 in - NNE 4.6 mph - N/A   Clear
2:30 AM 78.8 °F - 73.4 °F 83% 29.92 in - NNE 5.8 mph - N/A   Clear
3:00 AM 79 °F - 73 °F 76% 29.93 in 6 mi NNE 5.8 mph - -   Scattered Clouds
3:00 AM 78.8 °F - 73.4 °F 83% 29.92 in - NNE 5.8 mph - N/A   Clear
3:30 AM 77.0 °F - 73.4 °F 89% 29.92 in - Calm Calm - N/A   Clear
4:00 AM 77.0 °F - 73.4 °F 89% 29.92 in - Calm Calm - N/A   Clear
4:30 AM 77.0 °F - 73.4 °F 89% 29.92 in - Calm Calm - N/A   Clear
5:00 AM 77.0 °F - 75.2 °F 94% 29.92 in 5.6 mi ESE 3.5 mph - N/A   Partly Cloudy
5:30 AM 77.0 °F - 75.2 °F 94% 29.92 in 5.0 mi Variable 2.3 mph - N/A   Unknown
6:00 AM 77.0 °F - 73.4 °F 89% 29.92 in 4.3 mi ESE 3.5 mph - N/A   Unknown
6:30 AM 78.8 °F - 73.4 °F 83% 29.95 in 4.3 mi Variable 2.3 mph - N/A   Unknown
7:00 AM 80.6 °F 85.4 °F 73.4 °F 79% 29.95 in 5.0 mi Variable 1.2 mph - N/A   Unknown
7:30 AM 82.4 °F 87.2 °F 71.6 °F 70% 29.95 in 5.6 mi Variable 2.3 mph - N/A   Unknown
8:00 AM 82.4 °F 88.2 °F 73.4 °F 74% 29.95 in - SSE 5.8 mph - N/A   Clear
8:30 AM 84.2 °F 90.9 °F 73.4 °F 70% 29.95 in - SSE 3.5 mph - N/A   Clear
9:00 AM 85 °F - 69 °F 50% 29.97 in 7 mi SE 9.2 mph - -   Partly Cloudy
9:00 AM 86.0 °F 90.4 °F 69.8 °F 58% 29.95 in - SE 9.2 mph - N/A   Clear
9:30 AM 87.8 °F 87.6 °F 60.8 °F 40% 29.95 in - SE 9.2 mph - N/A   Clear
10:00 AM 87.8 °F 88.5 °F 62.6 °F 43% 29.95 in - SSE 8.1 mph - N/A   Clear
10:30 AM 89.6 °F 89.5 °F 60.8 °F 38% 29.92 in - SSE 8.1 mph - N/A   Clear
11:00 AM 89.6 °F 91.1 °F 64.4 °F 43% 29.92 in 6.2 mi SE 6.9 mph - N/A   Partly Cloudy
11:30 AM 89.6 °F 89.5 °F 60.8 °F 38% 29.89 in 6.2 mi SE 8.1 mph - N/A   Mostly Cloudy
12:00 PM 91.4 °F 89.4 °F 55.4 °F 29% 29.89 in 6.2 mi SE 8.1 mph - N/A   Scattered Clouds
12:30 PM 91.4 °F 92.1 °F 62.6 °F 38% 29.86 in 6.2 mi SE 6.9 mph - N/A   Scattered Clouds
1:00 PM 91.4 °F 89.4 °F 55.4 °F 29% 29.86 in 6.2 mi SE 9.2 mph - N/A   Scattered Clouds
1:30 PM 91.4 °F 89.4 °F 55.4 °F 29% 29.83 in 6.2 mi SE 9.2 mph - N/A   Scattered Clouds
2:00 PM 89.6 °F 88.9 °F 59.0 °F 36% 29.83 in 6.2 mi SE 9.2 mph - N/A   Mostly Cloudy
2:30 PM 89.6 °F 90.1 °F 62.6 °F 40% 29.83 in - SE 11.5 mph - N/A   Clear
3:00 PM 89 °F - 61 °F 29% 29.84 in 7 mi SE 10.4 mph - -   Scattered Clouds
3:00 PM 89.6 °F 89.5 °F 60.8 °F 38% 29.83 in 6.2 mi SE 10.4 mph - N/A   Scattered Clouds
3:30 PM 87.8 °F 89.4 °F 64.4 °F 46% 29.83 in 6.2 mi SE 9.2 mph - N/A   Scattered Clouds
4:00 PM 87.8 °F 89.4 °F 64.4 °F 46% 29.83 in 6.2 mi SE 10.4 mph - N/A   Scattered Clouds
4:30 PM 86.0 °F 89.4 °F 68.0 °F 55% 29.83 in - SE 8.1 mph - N/A   Clear
5:00 PM 84.2 °F 89.6 °F 71.6 °F 66% 29.83 in - ESE 5.8 mph - N/A   Clear
5:30 PM 84.2 °F 89.6 °F 71.6 °F 66% 29.83 in - East 5.8 mph - N/A   Clear
6:00 PM 82.4 °F 89.5 °F 75.2 °F 79% 29.83 in - ESE 6.9 mph - N/A   Clear
6:30 PM 82.4 °F 87.2 °F 71.6 °F 70% 29.86 in - ESE 5.8 mph - N/A   Clear
7:00 PM 82.4 °F 89.5 °F 75.2 °F 79% 29.86 in - East 3.5 mph - N/A   Clear
7:30 PM 82.4 °F 89.5 °F 75.2 °F 79% 29.86 in - East 4.6 mph - N/A   Clear
8:00 PM 82.4 °F 89.5 °F 75.2 °F 79% 29.86 in - East 4.6 mph - N/A   Clear
8:30 PM 82.4 °F 88.2 °F 73.4 °F 74% 29.86 in - East 4.6 mph - N/A   Clear
9:00 PM 82 °F - 73 °F 67% 29.86 in 6 mi East 5.8 mph - -   Scattered Clouds
9:00 PM 82.4 °F 88.2 °F 73.4 °F 74% 29.86 in - East 5.8 mph - N/A   Clear
9:30 PM 82.4 °F 88.2 °F 73.4 °F 74% 29.83 in - East 5.8 mph - N/A   Clear
10:00 PM 82.4 °F 88.2 °F 73.4 °F 74% 29.83 in - East 8.1 mph - N/A   Clear
10:30 PM 82.4 °F 88.2 °F 73.4 °F 74% 29.83 in - East 6.9 mph - N/A   Clear
11:00 PM 82.4 °F 88.2 °F 73.4 °F 74% 29.83 in - ESE 5.8 mph - N/A   Clear
11:30 PM 82.4 °F 88.2 °F 73.4 °F 74% 29.83 in - ESE 8.1 mph - N/A   Clear